Change the Weather History Date:

Friday, February 1, 2013

  Actual Average (KCHS) Record (KCHS)
Temperature  
Mean Temperature 44 °F 49 °F  
Max Temperature 57 °F 60 °F 82 °F (2002)
Min Temperature 30 °F 39 °F 21 °F (1977)
Degree Days  
Heating Degree Days 20 16  
Month to date heating degree days 16  
Since 1 July heating degree days 1275  
Cooling Degree Days 0 0  
Month to date cooling degree days 0  
Year to date cooling degree days 2  
Moisture  
Dew Point 28 °F    
Average Humidity 57    
Maximum Humidity 93    
Minimum Humidity 23    
Precipitation  
Precipitation 0.00 in 0.11 in 1.48 in (1999)
Month to date precipitation 0.11  
Year to date precipitation 3.82  
Sea Level Pressure  
Sea Level Pressure 30.24 in    
Wind  
Wind Speed 6 mph (West)    
Max Wind Speed 21 mph    
Max Gust Speed 31 mph    
Visibility 10 miles    
Events      
T = Trace of Precipitation, MM = Missing Value Source: NWS Daily Summary

Daily Weather History Graph

Daily Weather History Graph

Search for Another Location

Airport or City:

Trip Planner

Search our weather history database for the weather conditions in past years. The results will help you decide how hot, cold, wet, or windy it might be!

Date:

Astronomy

Feb. 01, 2013 Rise Set
Actual Time 7:16 AM EST 5:53 PM EST
Civil Twilight 6:50 AM EST 6:19 PM EST
Nautical Twilight 6:20 AM EST 6:49 PM EST
Astronomical Twilight 5:51 AM EST 7:18 PM EST
Moon 11:36 PM EST (2/1) 10:09 AM EST (2/1)
Length of Visible Light 11h 29m
Length of Day
10h 37m
Waning Gibbous, 70% of the Moon is Illuminated
Feb 1
Waning Gibbous
Feb 3
Last Quarter
Feb 10
New
Feb 17
First Quarter
Feb 25
Full

Hourly Weather History & Observations

Time (EST) Temp. Windchill Dew Point Humidity Pressure Visibility Wind Dir Wind Speed Gust Speed Precip Events Conditions
12:15 AM 35.6 °F 32.8 °F 32.0 °F 87% 30.18 in 10.0 mi SSW 3.5 mph - N/A   Clear
1:55 AM 37.4 °F 33.8 °F 30.2 °F 75% 30.18 in 10.0 mi SW 4.6 mph - N/A   Clear
2:55 AM 35.6 °F - 30.2 °F 81% 30.17 in 10.0 mi Calm Calm - N/A   Clear
3:15 AM 33.8 °F 30.8 °F 32.0 °F 93% 30.17 in 10.0 mi SW 3.5 mph - N/A   Clear
3:35 AM 35.6 °F 31.7 °F 30.2 °F 81% 30.17 in 10.0 mi SW 4.6 mph - N/A   Clear
5:35 AM 37.4 °F 32.8 °F 30.2 °F 75% 30.15 in 10.0 mi SSW 5.8 mph - N/A   Clear
6:15 AM 37.4 °F 33.8 °F 30.2 °F 75% 30.16 in 10.0 mi SSW 4.6 mph - N/A   Clear
6:35 AM 37.4 °F 32.8 °F 30.2 °F 75% 30.16 in 10.0 mi SSW 5.8 mph - N/A   Clear
7:15 AM 37.4 °F 33.8 °F 30.2 °F 75% 30.17 in 10.0 mi SSW 4.6 mph - N/A   Clear
7:35 AM 37.4 °F 32.1 °F 30.2 °F 75% 30.16 in 10.0 mi SSW 6.9 mph - N/A   Clear
7:55 AM 37.4 °F 32.8 °F 30.2 °F 75% 30.17 in 10.0 mi SSW 5.8 mph - N/A   Clear
8:15 AM 39.2 °F 35.9 °F 30.2 °F 70% 30.18 in 10.0 mi SW 4.6 mph - N/A   Clear
8:35 AM 42.8 °F 39.3 °F 32.0 °F 66% 30.19 in 10.0 mi SW 5.8 mph - N/A   Clear
8:55 AM 44.6 °F 39.7 °F 32.0 °F 61% 30.20 in 10.0 mi WSW 9.2 mph - N/A   Clear
9:15 AM 46.4 °F 41.9 °F 32.0 °F 57% 30.20 in 10.0 mi SW 9.2 mph - N/A   Clear
9:35 AM 50.0 °F - 32.0 °F 50% 30.20 in 10.0 mi WSW 10.4 mph - N/A   Clear
9:55 AM 51.8 °F - 32.0 °F 47% 30.20 in 10.0 mi West 12.7 mph 23.0 mph N/A   Clear
10:15 AM 53.6 °F - 32.0 °F 44% 30.20 in 10.0 mi WSW 9.2 mph 19.6 mph N/A   Clear
10:35 AM 53.6 °F - 32.0 °F 44% 30.20 in 10.0 mi WSW 11.5 mph 26.5 mph N/A   Clear
10:55 AM 53.6 °F - 32.0 °F 44% 30.20 in 10.0 mi West 12.7 mph 20.7 mph N/A   Clear
11:15 AM 55.4 °F - 32.0 °F 41% 30.20 in 10.0 mi West 20.7 mph 31.1 mph N/A   Clear
11:35 AM 55.4 °F - 28.4 °F 36% 30.21 in 10.0 mi WNW 17.3 mph 21.9 mph N/A   Clear
11:55 AM 55.4 °F - 26.6 °F 33% 30.21 in 10.0 mi West 20.7 mph 26.5 mph N/A   Clear
12:15 PM 55.4 °F - 26.6 °F 33% 30.21 in 10.0 mi West 17.3 mph 25.3 mph N/A   Clear
12:35 PM 55.4 °F - 26.6 °F 33% 30.21 in 10.0 mi WNW 15.0 mph 18.4 mph N/A   Clear
12:55 PM 57.2 °F - 26.6 °F 31% 30.21 in 10.0 mi West 13.8 mph 21.9 mph N/A   Clear
1:15 PM 55.4 °F - 26.6 °F 33% 30.20 in 10.0 mi NW 15.0 mph 23.0 mph N/A   Clear
1:35 PM 55.4 °F - 26.6 °F 33% 30.20 in 10.0 mi WNW 11.5 mph 21.9 mph N/A   Clear
1:55 PM 55.4 °F - 23.0 °F 29% 30.21 in 10.0 mi WNW 16.1 mph 26.5 mph N/A   Clear
2:15 PM 55.4 °F - 23.0 °F 29% 30.20 in 10.0 mi West 12.7 mph 20.7 mph N/A   Clear
2:35 PM 55.4 °F - 23.0 °F 29% 30.21 in 10.0 mi NW 11.5 mph 21.9 mph N/A   Clear
2:55 PM 55.4 °F - 23.0 °F 29% 30.22 in 10.0 mi WNW 13.8 mph 19.6 mph N/A   Clear
3:15 PM 55.4 °F - 23.0 °F 29% 30.22 in 10.0 mi West 12.7 mph 17.3 mph N/A   Clear
3:35 PM 55.4 °F - 21.2 °F 26% 30.22 in 10.0 mi West 10.4 mph 16.1 mph N/A   Clear
3:55 PM 55.4 °F - 19.4 °F 25% 30.23 in 10.0 mi WNW 9.2 mph - N/A   Clear
4:15 PM 55.4 °F - 17.6 °F 23% 30.23 in 10.0 mi WNW 6.9 mph - N/A   Clear
4:35 PM 55.4 °F - 17.6 °F 23% 30.24 in 10.0 mi WNW 5.8 mph - N/A   Clear
4:55 PM 53.6 °F - 17.6 °F 24% 30.25 in 10.0 mi WNW 8.1 mph - N/A   Clear
5:15 PM 51.8 °F - 21.2 °F 30% 30.25 in 10.0 mi North 9.2 mph - N/A   Clear
5:35 PM 50.0 °F - 23.0 °F 35% 30.26 in 10.0 mi North 5.8 mph - N/A   Clear
5:55 PM 48.2 °F - 23.0 °F 37% 30.27 in 10.0 mi North 4.6 mph - N/A   Clear
6:15 PM 46.4 °F - 23.0 °F 40% 30.28 in 10.0 mi Calm Calm - N/A   Clear
6:35 PM 44.6 °F 43.1 °F 23.0 °F 43% 30.28 in 10.0 mi NNW 3.5 mph - N/A   Clear
6:55 PM 44.6 °F - 23.0 °F 43% 30.30 in 10.0 mi Calm Calm - N/A   Clear
7:15 PM 41.0 °F - 30.2 °F 65% 30.30 in 10.0 mi Calm Calm - N/A   Clear
7:35 PM 39.2 °F - 26.6 °F 61% 30.32 in 10.0 mi Calm Calm - N/A   Clear
7:55 PM 37.4 °F - 28.4 °F 70% 30.33 in 10.0 mi Calm Calm - N/A   Clear
8:15 PM 35.6 °F - 28.4 °F 75% 30.33 in 10.0 mi Calm Calm - N/A   Clear
8:35 PM 35.6 °F - 28.4 °F 75% 30.33 in 10.0 mi Calm Calm - N/A   Clear
8:55 PM 33.8 °F - 28.4 °F 81% 30.34 in 10.0 mi Calm Calm - N/A   Clear
9:15 PM 33.8 °F - 30.2 °F 87% 30.34 in 10.0 mi Calm Calm - N/A   Clear
9:35 PM 33.8 °F - 30.2 °F 87% 30.35 in 10.0 mi Calm Calm - N/A   Clear
9:55 PM 32.0 °F - 30.2 °F 93% 30.35 in 10.0 mi Calm Calm - N/A   Clear
10:15 PM 32.0 °F - 30.2 °F 93% 30.35 in 10.0 mi Calm Calm - N/A   Clear
10:35 PM 32.0 °F - 30.2 °F 93% 30.35 in 10.0 mi Calm Calm - N/A   Clear
10:55 PM 32.0 °F - 30.2 °F 93% 30.36 in 10.0 mi Calm Calm - N/A   Clear
11:15 PM 32.0 °F - 28.4 °F 87% 30.37 in 10.0 mi Calm Calm - N/A   Clear
11:35 PM 32.0 °F - 28.4 °F 87% 30.37 in 10.0 mi Calm Calm - N/A   Clear
11:55 PM 30.2 °F - 28.4 °F 93% 30.37 in 10.0 mi Calm Calm - N/A   Clear